Time,TemperatureF,DewpointF,PressureIn,WindDirection,WindDirectionDegrees,WindSpeedMPH,WindSpeedGustMPH,Humidity,HourlyPrecipIn,Conditions,Clouds,dailyrainin,SoftwareType,DateUTC
2013-07-08 00:40:00,85.6,71.1,29.66,SSE,157,3.2,-999.0,62,-99.99,,,0.00,Acu-Link.com,2013-07-08 05:40:00,
2013-07-08 00:55:00,85.3,71.2,29.67,SE,135,6.3,-999.0,63,-99.99,,,0.00,Acu-Link.com,2013-07-08 05:55:00,
2013-07-08 01:10:00,84.9,70.9,29.67,South,180,2.7,-999.0,63,-99.99,,,0.00,Acu-Link.com,2013-07-08 06:10:00,
2013-07-08 01:25:00,84.6,71.1,29.67,SSE,157,3.7,-999.0,64,-99.99,,,0.00,Acu-Link.com,2013-07-08 06:25:00,
2013-07-08 02:55:00,82.4,70.8,29.68,South,180,3.2,-999.0,68,-99.99,,,0.00,Acu-Link.com,2013-07-08 07:55:00,
2013-07-08 03:11:00,82.0,70.4,29.68,ESE,112,0.0,-999.0,68,-99.99,,,0.00,Acu-Link.com,2013-07-08 08:11:00,
2013-07-08 03:52:00,81.9,70.7,29.68,SSW,202,3.2,-999.0,69,-99.99,,,0.00,Acu-Link.com,2013-07-08 08:52:00,
2013-07-08 04:07:00,80.8,70.9,29.69,SE,135,2.7,-999.0,72,-99.99,,,0.00,Acu-Link.com,2013-07-08 09:07:00,
2013-07-08 04:22:00,80.4,70.9,29.70,SSE,157,0.0,-999.0,73,-99.99,,,0.00,Acu-Link.com,2013-07-08 09:22:00,
2013-07-08 04:37:00,80.2,71.1,29.70,South,180,4.2,-999.0,74,-99.99,,,0.00,Acu-Link.com,2013-07-08 09:37:00,
2013-07-08 05:41:00,80.2,71.1,29.72,South,180,3.2,-999.0,74,-99.99,,,0.00,Acu-Link.com,2013-07-08 10:41:00,
2013-07-08 05:56:00,78.8,71.3,29.73,South,180,5.3,-999.0,78,-99.99,,,0.00,Acu-Link.com,2013-07-08 10:56:00,
2013-07-08 06:41:00,78.6,71.5,29.73,SSE,157,3.2,-999.0,79,-99.99,,,0.00,Acu-Link.com,2013-07-08 11:41:00,
2013-07-08 06:56:00,78.4,72.1,29.75,SE,135,6.8,-999.0,81,-99.99,,,0.00,Acu-Link.com,2013-07-08 11:56:00,
2013-07-08 07:41:00,79.0,72.7,29.75,ENE,67,3.7,-999.0,81,-99.99,,,0.00,Acu-Link.com,2013-07-08 12:41:00,
2013-07-08 07:57:00,79.7,73.3,29.76,SE,135,3.2,-999.0,81,-99.99,,,0.00,Acu-Link.com,2013-07-08 12:57:00,
2013-07-08 08:12:00,80.4,73.3,29.76,SE,135,5.8,-999.0,79,-99.99,,,0.00,Acu-Link.com,2013-07-08 13:12:00,
2013-07-08 08:27:00,82.0,74.1,29.77,SSW,202,1.7,-999.0,77,-99.99,,,0.00,Acu-Link.com,2013-07-08 13:27:00,
2013-07-08 08:42:00,81.9,74.0,29.77,SE,135,4.2,-999.0,77,-99.99,,,0.00,Acu-Link.com,2013-07-08 13:42:00,
2013-07-08 09:57:00,84.9,74.4,29.77,SSE,157,5.3,-999.0,71,-99.99,,,0.00,Acu-Link.com,2013-07-08 14:57:00,
2013-07-08 10:12:00,86.7,74.8,29.78,ESE,112,3.2,-999.0,68,-99.99,,,0.00,Acu-Link.com,2013-07-08 15:12:00,
2013-07-08 10:27:00,87.4,75.5,29.78,SSW,202,1.7,-999.0,68,-99.99,,,0.00,Acu-Link.com,2013-07-08 15:27:00,
2013-07-08 10:42:00,87.3,74.5,29.78,South,180,1.1,-999.0,66,-99.99,,,0.00,Acu-Link.com,2013-07-08 15:42:00,
2013-07-08 10:57:00,88.9,75.1,29.78,East,90,1.7,-999.0,64,-99.99,,,0.00,Acu-Link.com,2013-07-08 15:57:00,
2013-07-08 11:12:00,88.3,74.5,29.77,WSW,247,0.0,-999.0,64,-99.99,,,0.00,Acu-Link.com,2013-07-08 16:12:00,
2013-07-08 11:28:00,89.1,73.9,29.77,West,270,0.0,-999.0,61,-99.99,,,0.00,Acu-Link.com,2013-07-08 16:28:00,
2013-07-08 11:43:00,91.8,75.9,29.76,SSE,157,2.7,-999.0,60,-99.99,,,0.00,Acu-Link.com,2013-07-08 16:43:00,
2013-07-08 12:29:00,91.2,73.8,29.76,East,90,1.7,-999.0,57,-99.99,,,0.00,Acu-Link.com,2013-07-08 17:29:00,
2013-07-08 14:12:00,96.4,72.2,29.73,South,180,3.2,-999.0,46,-99.99,,,0.00,Acu-Link.com,2013-07-08 19:12:00,
2013-07-08 14:27:00,96.6,71.7,29.73,South,180,5.8,-999.0,45,-99.99,,,0.00,Acu-Link.com,2013-07-08 19:27:00,
2013-07-08 15:57:00,98.1,71.0,29.70,ESE,112,2.2,-999.0,42,-99.99,,,0.00,Acu-Link.com,2013-07-08 20:57:00,
2013-07-08 16:42:00,99.3,68.4,29.70,West,270,3.2,-999.0,37,-99.99,,,0.00,Acu-Link.com,2013-07-08 21:42:00,
2013-07-08 16:58:00,99.1,69.7,29.68,South,180,5.3,-999.0,39,-99.99,,,0.00,Acu-Link.com,2013-07-08 21:58:00,
2013-07-08 19:58:00,91.4,69.5,29.69,South,180,9.4,-999.0,49,-99.99,,,0.00,Acu-Link.com,2013-07-09 00:58:00,
2013-07-08 20:13:00,90.5,69.3,29.70,SE,135,6.8,-999.0,50,-99.99,,,0.00,Acu-Link.com,2013-07-09 01:13:00,
2013-07-08 20:28:00,89.8,68.6,29.69,SE,135,7.3,-999.0,50,-99.99,,,0.00,Acu-Link.com,2013-07-09 01:28:00,
2013-07-08 21:58:00,87.4,69.2,29.72,SE,135,2.7,-999.0,55,-99.99,,,0.00,Acu-Link.com,2013-07-09 02:58:00,
2013-07-08 23:43:00,86.0,64.6,29.76,West,270,0.0,-999.0,49,-99.99,,,0.00,Acu-Link.com,2013-07-09 04:43:00,
2013-07-08 23:58:00,84.4,63.7,29.76,East,90,0.0,-999.0,50,-99.99,,,0.00,Acu-Link.com,2013-07-09 04:58:00,